Terminal Aerodrome Forecast
Issued by NWS

Home | Current Version | Previous Version | Text Only | Print | Product List | Glossary On
Versions: 1 2 3 4 5 6 7 8 9 10 11 12 13 14 15 16 17 18 19 20 21 22 23 24 25 26 27 28 29 30 31 32 33 34 35 36 37 38 39 40 41 42 43 44 45 46 47 48 49 50
000
FTUS43 KMKX 041722
TAFUES
TAF
KUES 041722Z 0418/0518 29008KT P6SM FEW200
     FM042100 05005KT P6SM FEW250
     FM050000 08004KT P6SM FEW250
     FM050300 12003KT P6SM SCT250
     FM051000 22003KT P6SM VCSH BKN200
     FM051400 26005KT P6SM VCSH BKN200=

USA.gov is the U.S. government's official web portal to all federal, state and local government web resources and services.